< < Back
Terminal Aerodrome Forecast


Current Version              Previous Versions:   1  2  3  4  5  6  7  8  9  

Terminal Aerodrome Forecast

265
FTUS42 KFFC 301951 AAA
TAFMCN
TAF AMD
KMCN 301951Z 3020/3118 34005KT P6SM VCSH BKN040
      TEMPO 3020/3023 VRB10G20KT 6SM -TSRA BKN040CB
     FM310100 VRB04KT P6SM SCT060 SCT250
     FM311400 05004KT P6SM FEW050=



Latest METAR

215
SAUS80 KWBC 311300 RRB
MTRMCN
METAR KMCN 311253Z 32004KT 10SM CLR 28/23 A2994 RMK AO2 SLP134
T02780233


USA.gov is the U.S. government's official web portal to all federal, state and local government web resources and services.